www.pogodaiklimat.ru

Погода и климат >> Архив погоды >> Сербия >> Вршац


ПОГОДА в Вршаце

  • Прогноз погоды в Вршаце
  • Монитор погоды в Вршаце

АРХИВ ПОГОДЫ в Вршаце

Время (UTC), дата Ветер
(напр.,м/с)
 
Видим.   Явления Облачность Т
(С)
Тd
(С)
f
(%)
Тe
(С)
Тes
(С)
Комфортность P
(гПа)
Po
(гПа)
Тmin
(С)
Tmax
(С)
R
(мм)
R24
(мм)
S
(см)
10 12.01 Ю 2 10 км 9/9 1500 м
[Sc]
-1.7 -6.4 70 -5 -5 1019.5 1008.6
11 12.01 Ю 2 10 км 9/9 1500 м
[Sc]
-1.6 -6.4 70 -5 -5 1018.8 1007.9
12 12.01 Ю 2 10 км 9/9 1000 м
[Sc]
-1.7 -5.7 74 -5 -5 1018.3 1007.4
13 12.01 Ю 2 10 км 10/8 300 м
[St As op]
-2.0 -5.0 80 -6 -6 1018.0 1007.2
14 12.01 Ю 2 5000 м дымка 10/8 180 м
[St As op]
-2.1 -3.2 92 -6 -6 1017.9 1007.0
15 12.01 Ю 2 6000 м дымка 10/8 180 м
[St As op]
-1.6 -2.7 92 -6 -6 1017.6 1006.8
16 12.01 Ю 1 6000 м дымка 10/8 180 м
[St As op]
-1.5 -2.6 92 -4 -4 1017.5 1006.6
17 12.01 Ю 1 8000 м дымка 10/8 300 м
[St As op]
-1.1 -2.2 92 -3 -3 1017.3 1006.5
18 12.01 Ю 1 8000 м дымка 10/8 300 м
[St As op]
-0.8 -2.1 91 -3 -3 1017.2 1006.3 -0.8
19 12.01 Ю 2 10 км 10/10 480 м
[Sc]
-0.6 -2.3 88 -4 -4 1017.0 1006.2
20 12.01 ЮВ 2 10 км 10/10 600 м
[Sc]
-0.5 -2.5 86 -4 -4 1017.0 1006.2
21 12.01 Ю 4 10 км 10/10 600 м
[Sc]
-0.5 -2.1 89 -6 -6 1016.4 1005.6
22 12.01 Ю 2 10 км 10/10 600 м
[Sc]
-0.7 -2.1 90 -5 -5 1016.2 1005.3
23 12.01 Ю 4 10 км 10/10 600 м
[Sc]
-0.3 -2.2 87 -6 -6 1015.4 1004.6
00 13.01 Ю 4 10 км 10/10 600 м
[Sc]
-0.2 -2.1 87 -6 -6 1014.8 1004.0
01 13.01 Ю 4 10 км 10/10 600 м
[Sc]
-0.2 -2.1 87 -6 -6 1014.5 1003.7
02 13.01 Ю 4 8000 м дымка 10/8 480 м
[St Ac As]
-0.3 -1.9 89 -6 -6 1014.3 1003.5
03 13.01 Ю 3 10 км 10/8 480 м
[St Ac As]
+0.2 -2.0 85 -4 -4 1013.4 1002.6
04 13.01 Ю 1 10 км 10/8 300 м
[St As op]
+0.2 -1.6 88 -2 -2 1013.0 1002.2
05 13.01 Ю 4 10 км 10/8 300 м
[St Ac As]
+0.4 -1.9 85 -5 -5 1012.6 1001.9
06 13.01 Ю 2 10 км 10/8 400 м
[Sc Ac As]
+0.5 -1.8 85 -3 -3 1012.5 1001.8 -1.0 8
07 13.01 Ю 4 10 км 10/8 480 м
[Sc As op]
+1.0 -1.6 83 -4 -4 1012.2 1001.7
08 13.01 ЮВ 1 10 км 10/8 480 м
[Sc As op]
+1.5 -1.3 82 -0 -0 1012.1 1001.6
09 13.01 Ю 2 10 км 10/8 1000 м
[Sc As op]
+1.7 -0.9 83 -2 -1 1012.0 1001.5
10 13.01 Ю 3 10 км 10/8 1000 м
[Sc As op]
+1.6 -0.6 85 -3 -3 1011.6 1001.1
11 13.01 Ю 3 10 км 10/8 400 м
[Sc As op]
+1.4 -0.5 87 -3 -3 1011.3 1000.6
12 13.01 Ю 5 10 км 10/8 1300 м
[Sc As op]
+1.8 -0.3 86 -4 -4 1010.3 999.8
13 13.01 Ю 4 15 км 9/6 1300 м
[Sc As op]
+2.4 -0.1 84 -2 -2 1009.5 998.8
14 13.01 Ю 9 15 км 9/5 600 м
[Sc As op]
+2.3 -0.1 84 -5 -5 1008.4 998.0
15 13.01 Ю 7 15 км 5/3 1500 м
[Sc Ac trans]
+2.0 -0.3 85 -4 -4 1008.2 997.5
16 13.01 Ю 8 15 км 8/0
[Ac As Ci fib]
+2.3 -0.9 79 -4 -4 1007.7 997.3
17 13.01 Ю 8 15 км 8/4 1500 м
[Sc As op]
+2.2 -1.3 78 -4 -4 1007.5 997.1
18 13.01 Ю 5
{14}
15 км 8/4 1500 м
[Sc As op]
+1.7 -1.6 79 -4 -4 1007.2 996.7 +3.1 3
19 13.01 Ю 7 15 км 4/4 1500 м
[Sc]
+1.7 -1.9 77 -5 -5 1006.1 995.5
20 13.01 Ю 8 15 км 3/0
[Ac trans]
+1.5 -2.1 77 -5 -5 1005.1 994.5
21 13.01 Ю 7 15 км 3/0
[Ac trans]
+1.6 -2.4 75 -5 -5 1004.2 993.6
22 13.01 Ю 8 15 км 3/0
[Ac trans]
+1.7 -2.5 74 -5 -5 1003.8 993.2
23 13.01 Ю 9 15 км 3/0
[Ac trans]
+2.0 -2.7 71 -5 -5 1002.2 991.6
00 14.01 Ю 7-13
{14}
10 км 3/0
[Ac trans]
+1.6 -2.9 72 -5 -5 1000.7 990.2
01 14.01 ЮВ 11 10 км 3/0
[Ac trans]
+2.7 -2.7 68 -5 -5 999.2 988.7
02 14.01 Ю 9 10 км 3/0
[Ac trans]
+2.9 -2.7 67 -4 -4 998.5 988.0
03 14.01 Ю 13 10 км 3/0
[Ac trans]
+2.9 -2.8 66 -5 -5 997.3 986.8
04 14.01 Ю 10 10 км 5/5 1500 м
[Sc]
+2.9 -2.9 66 -4 -4 997.4 986.9
05 14.01 Ю 4 10 км 9/9 1200 м
[Sc]
+3.4 -2.4 66 -1 -1 997.8 987.4
06 14.01 Ю 5 10 км слаб. дождь 10/6 900 м
[Sc As op]
+2.5 -0.9 78 -3 -3 998.0 987.5 +1.4 0.0 1
07 14.01 Ю 5 15 км слаб. дождь 10/8 1000 м
[Sc As op]
+2.9 0.0 81 -2 -2 998.3 987.8
08 14.01 Ю 6 15 км в посл. час дождь 9/6 400 м
[Sc Ac As]
+3.1 +0.5 83 -3 -3 999.0 988.5
09 14.01 Ю 4
{12}
15 км {дождь} 9/8 600 м
[Cu Sc Ac trans]
+3.4 +0.8 83 -1 -1 1000.1 989.4
10 14.01 Ю 3 15 км 9/8 600 м
[Cu Sc Ac trans]
+3.2 +0.9 85 -1 -0 1000.1 989.4
11 14.01 Ю 2 15 км 9/8 600 м
[Cu Sc Ac trans]
+3.7 +1.2 84 +1 +1 999.7 989.2
12 14.01 Ю 1 15 км {дождь} 9/8 1300 м
[Sc Ac trans]
+4.1 +1.1 81 +3 +3 999.8 989.4 0.9
13 14.01 Ю 1 15 км 9/5 1200 м
[Sc Ac trans]
+4.6 +0.7 76 +3 +4 1000.1 989.5
14 14.01 Ю 1 15 км 9/5 1200 м
[Sc Ac trans]
+4.6 +0.7 76 +3 +4 1000.1 989.5
15 14.01 СЗ 1 15 км 3/0
[Ac trans Ci fib]
+4.1 +0.1 75 +3 +3 1001.1 990.7
16 14.01 З 1 15 км 5/0
[Ac und Ci fib]
+2.3 -0.6 81 +1 +1 1002.2 991.7
17 14.01 ЮЗ 1 15 км 3/0
[Ac trans Ci fib]
+1.7 -1.3 80 0 0 1003.3 992.7
18 14.01 штиль 0 15 км ясно +0.8 -3.8 71 0 0 1004.2 993.5 +5.0 0.9
19 14.01 штиль 0 15 км ясно -0.9 -3.4 83 -2 -2 1004.8 994.3
20 14.01 З 2 15 км ясно -0.8 -3.9 79 -4 -4 1006.1 995.3
21 14.01 СЗ 3 15 км ясно -0.6 -4.2 77 -5 -5 1006.5 996.0
22 14.01 СЗ 2 15 км 3/0
[Ci fib]
-0.6 -5.0 72 -4 -4 1007.1 996.6
23 14.01 С 2 15 км 3/0
[Ci fib]
0.0 -5.1 68 -3 -3 1007.7 997.0
00 15.01 СЗ 7 15 км 3/0
[Ci fib]
+1.1 -4.2 68 -5 -5 1008.3 997.6
01 15.01 СЗ 3 15 км 3/0
[Ci fib]
+0.7 -3.9 71 -4 -4 1009.3 998.6
02 15.01 СЗ 5 15 км 3/0
[Ci fib]
0.0 -4.1 74 -6 -6 1010.0 999.3
03 15.01 СЗ 7 15 км 3/0
[Ci fib]
-0.4 -4.7 73 -7 -7 1010.7 999.9
04 15.01 СЗ 5 15 км 3/0
[Ci fib]
-1.9 -5.3 78 -8 -8 1012.0 1001.1
05 15.01 С 4 15 км 5/3 1500 м
[Sc Ci fib]
-2.6 -6.2 76 -8 -8 1013.3 1002.6
06 15.01 СЗ 7 15 км 3/0
[Ci fib]
-0.4 -4.7 73 -7 -7 1010.7 999.9
07 15.01 СЗ 1 20 км 1/0
[Ac trans]
-4.4 -6.8 83 -7 -6 1015.3 1004.3
08 15.01 Ю 1 20 км ясно -2.7 -6.6 74 -5 -3 1016.4 1005.5
09 15.01 ЮЗ 1 20 км ясно -1.6 -6.0 72 -3 -0 1016.8 1005.9
10 15.01 З 3 20 км ясно -0.4 -4.3 75 -5 -2 1016.8 1006.0
11 15.01 З 3 20 км 3/3 600 м
[Cu hum]
+0.5 -4.5 69 -4 -2 1016.6 1005.8
12 15.01 З 3 20 км 8/6 600 м
[Cu Sc Ac trans]
+1.4 -4.3 66 -3 -2 1016.3 1005.6
13 15.01 З 2 20 км 8/8 1000 м
[Cu Sc]
+1.7 -3.9 66 -1 -1 1016.2 1005.4
14 15.01 СЗ 3 20 км 8/3 1000 м
[Cu med, cong Ac trans]
+1.9 -4.0 65 -2 -2 1016.2 1005.5
15 15.01 СЗ 1 20 км 5/3 1000 м
[Cu med, cong Ac trans]
0.0 -3.2 79 -2 -2 1016.6 1005.8
17 15.01 ЮЗ 1 20 км 4/3 1200 м
[Sc Ac trans]
-1.5 -3.1 89 -4 -4 1017.1 1006.2
18 15.01 ЮЗ 1 20 км 6/3 1200 м
[Sc Ac trans]
-0.6 -3.1 83 -3 -3 1017.3 1006.4 +2.2
19 15.01 ЮЗ 3 15 км 9/6 1000 м
[Sc Ac und]
+0.3 -2.3 83 -4 -4 1017.5 1006.7
20 15.01 ЮЗ 2 15 км 9/6 1200 м
[Sc Ac trans]
+1.0 -2.7 76 -2 -2 1017.4 1006.6
21 15.01 З 3 10 км слаб. снег 10/8 1000 м
[Sc As op]
+2.0 -2.7 71 -2 -2 1017.8 1007.1
23 15.01 Ю 2 15 км 9/8 1380 м
[Sc Ac trans]
+1.3 -3.3 71 -2 -2 1017.5 1006.7
22 15.01 ЮЗ 1 15 км в посл. час снег 9/8 1200 м
[Sc Ac trans]
+1.4 -3.1 72 -0 -0 1017.9 1007.2
00 16.01 Ю 3 15 км {снег} 9/8 1380 м
[Sc Ac trans]
+1.4 -3.8 68 -3 -3 1017.2 1006.4 0.0
01 16.01 Ю 2 15 км 9/8 1380 м
[Sc Ac trans]
+1.7 -4.3 64 -1 -1 1017.0 1006.3
02 16.01 Ю 2 15 км 9/8 1380 м
[Sc Ac trans]
+1.7 -4.3 64 -1 -1 1016.6 1005.9
03 16.01 Ю 2 15 км 9/8 1380 м
[Sc Ac trans]
+2.2 -4.7 60 -1 -1 1016.2 1005.5
05 16.01 Ю 2 15 км 9/5 1500 м
[Sc Ac trans]
+3.0 -4.9 56 +1 +1 1016.5 1005.8
04 16.01 Ю 2 15 км 9/5 1500 м
[Sc Ac trans]
+2.6 -4.8 58 0 0 1016.5 1005.8
06 16.01 Ю 3 15 км 9/8 1200 м
[Sc Ac trans]
+3.4 -5.1 54 0 0 1016.3 1005.6 -0.6 0.0
07 16.01 Ю 1 15 км 9/9 1200 м
[Sc]
+3.5 -4.5 56 +3 +3 1017.1 1006.4
08 16.01 Ю 2 20 км 9/9 1200 м
[Sc]
+3.9 -3.9 57 +2 +2 1017.4 1006.8
09 16.01 Ю 1 20 км 10/8 1200 м
[Sc As op]
+3.4 -2.1 67 +2 +2 1017.7 1007.0
11 16.01 Ю 2 20 км 10/8 1000 м
[Sc As op]
+4.8 -1.5 64 +3 +3 1017.5 1006.9
10 16.01 Ю 2 20 км 10/8 1000 м
[Sc As op]
+3.5 -1.0 72 +1 +1 1017.8 1007.1
12 16.01 Ю 1 20 км 10/8 1000 м
[Sc As op]
+5.0 -2.3 59 +4 +4 1017.2 1006.6
13 16.01 Ю 3 20 км 9/9 1200 м
[Sc]
+5.1 -1.5 62 +2 +2 1017.0 1006.4
14 16.01 Ю 3 20 км 9/9 1200 м
[Sc]
+4.9 -1.1 65 +2 +2 1017.1 1006.4
15 16.01 Ю 1 20 км 6/6 1500 м
[Sc]
+5.1 -1.2 64 +4 +4 1017.3 1006.7
17 16.01 штиль 0 20 км 3/0
[Ac trans]
+2.7 -2.0 71 +2 +2 1018.0 1007.2
16 16.01 Ю 1 20 км 4/0
[Ac trans]
+4.5 -1.8 64 +4 +4 1017.3 1006.7
18 16.01 штиль 0 20 км 4/0
[Ac trans]
+2.9 -2.2 69 +2 +2 1018.0 1007.3 +5.6
19 16.01 В 1 20 км ясно -1.1 -4.0 81 -3 -3 1017.9 1007.2
20 16.01 штиль 0 20 км ясно +1.1 -2.6 76 0 0 1018.1 1007.3
21 16.01 ЮВ 2 20 км ясно +4.9 -3.4 55 +3 +3 1018.1 1007.4
23 16.01 Ю 8 20 км 4/0
[Ci fib]
+5.5 -3.8 51 0 0 1017.4 1006.8
22 16.01 Ю 6 20 км 4/0
[Ci fib]
+5.4 -3.7 52 +1 +1 1017.8 1007.2
00 17.01 Ю 8
{15}
20 км ясно +5.1 -3.7 53 -0 -0 1017.5 1006.9
01 17.01 Ю 9 20 км 3/0
[Ci fib]
+5.2 -3.6 53 -0 -0 1017.8 1007.2
02 17.01 Ю 9 20 км 6/0
[Cs]
+5.4 -3.4 53 0 0 1017.7 1007.1
03 17.01 Ю 3-9
{15}
20 км 6/3 1500 м
[Sc Cs]
+5.7 -3.4 52 +3 +3 1017.4 1006.8
05 17.01 Ю 7 20 км 3/0
[Ci fib]
+5.7 -3.5 52 +1 +1 1016.9 1006.3
06 17.01 Ю 9-14
{14}
20 км 1/0
[Ci fib]
+5.4 -3.7 52 0 0 1017.1 1006.4 +1.2
07 17.01 Ю 9 20 км 1/0
[Ci fib]
+5.2 -3.7 53 -0 -0 1017.1 1006.5
08 17.01 Ю 10 20 км 3/0
[Ac trans Ci fib]
+6.1 -3.5 50 +1 +1 1017.4 1006.8
09 17.01 Ю 12
{18}
20 км 3/0
[Ac trans Ci fib]
+7.1 -3.3 48 +2 +2 1017.5 1007.0
10 17.01 Ю 12 20 км 3/0
[Ac trans Ci fib]
+7.6 -3.3 46 +2 +2 1017.3 1006.8
11 17.01 Ю 9 20 км 3/0
[Ac trans Ci fib]
+7.7 -2.9 47 +3 +3 1017.2 1006.7
12 17.01 Ю 8
{18}
20 км 3/0
[Ac trans Ci fib]
+8.4 -2.6 46 +4 +5 1016.8 1006.3
13 17.01 Ю 8 20 км 3/0
[Ac trans Ci fib]
+8.6 -2.7 45 +5 +5 1016.2 1005.7
14 17.01 Ю 8 20 км 1/0
[Ci fib]
+8.4 -2.8 45 +4 +4 1015.9 1005.5
15 17.01 Ю 11
{15}
20 км 1/0
[Ci fib]
+8.0 -3.0 46 +3 +3 1015.4 1004.9
16 17.01 Ю 10 15 км ясно +7.5 -3.1 47 +3 +3 1015.4 1004.9
17 17.01 Ю 9 15 км ясно +7.3 -3.0 48 +3 +3 1015.6 1005.1
18 17.01 Ю 8
{15}
15 км ясно +7.3 -2.9 48 +3 +3 1015.7 1005.1 +8.6
19 17.01 Ю 9 15 км ясно +7.7 -2.9 47 +3 +3 1015.2 1004.7
20 17.01 ЮВ 8 15 км ясно +7.2 -2.8 49 +3 +3 1015.3 1004.8
21 17.01 ЮВ 9 15 км ясно +6.7 -3.0 50 +2 +2 1015.1 1004.6
22 17.01 Ю 9 15 км ясно +6.6 -3.1 50 +2 +2 1014.9 1004.4
23 17.01 Ю 9 15 км ясно +6.2 -3.0 52 +1 +1 1014.8 1004.3
00 18.01 ЮВ 10
{15}
15 км ясно +6.3 -3.0 51 +1 +1 1014.6 1004.0
01 18.01 ЮВ 10 15 км ясно +6.2 -3.0 52 +1 +1 1014.6 1004.0
02 18.01 ЮВ 9 15 км ясно +6.0 -3.1 52 +1 +1 1014.1 1003.6
03 18.01 ЮВ 8 15 км ясно +6.3 -3.0 51 +2 +2 1013.8 1003.2
04 18.01 ЮВ 9 15 км ясно +6.3 -3.4 50 +1 +1 1013.2 1002.7
05 18.01 Ю 10 15 км ясно +6.4 -3.5 49 +1 +1 1013.2 1002.7
06 18.01 Ю 10
{15}
20 км 3/0
[Ci fib]
+6.3 -3.4 50 +1 +1 1012.9 1002.4 +5.8
07 18.01 Ю 10 20 км 5/0
[Ac trans Ci fib]
+6.5 -3.3 50 +1 +1 1013.1 1002.8
08 18.01 Ю 9 20 км 8/0
[Ac trans Ci fib]
+7.2 -2.6 50 +2 +3 1013.3 1003.0
09 18.01 Ю 9
{16}
20 км 8/4 1500 м
[Sc Ac trans Ci fib]
+8.7 -1.7 48 +4 +5 1013.7 1003.3
10 18.01 Ю 8 20 км 9/9 1500 м
[Sc]
+7.7 -2.0 50 +3 +3 1013.4 1003.1
11 18.01 Ю 8 20 км 9/9 1500 м
[Sc]
+9.1 -1.4 48 +5 +5 1013.0 1002.8
12 18.01 Ю 9
{14}
20 км 9/9 1500 м
[Sc]
+8.9 -1.6 48 +5 +5 1013.2 1002.7
13 18.01 ЮЗ 3 20 км 10/6 1380 м
[Sc As op]
+6.2 +1.6 72 +3 +3 1013.8 1003.5
14 18.01 СЗ 4 20 км в посл. час дождь 9/6 1300 м
[Sc As op]
+5.5 +1.8 77 +2 +2 1014.9 1004.5
15 18.01 С 3 15 км {дождь} 9/6 1200 м
[Sc As op]
+4.4 +1.3 80 +1 +1 1016.0 1005.6
16 18.01 С 5 15 км слаб. дождь 10/8 600 м
[Sc As op]
+3.7 +1.7 87 -1 -1 1017.2 1006.8
17 18.01 С 6 15 км слаб. дождь 10/8 600 м
[Frnb As op]
+3.0 +1.7 91 -3 -3 1017.9 1007.4
18 18.01 СВ 5 10 км слаб. дождь 10/8 600 м
[Frnb As op]
+2.8 +1.9 94 -3 -3 1018.3 1007.8 +9.8 0.0
19 18.01 С 3 10 км в посл. час дождь 10/9 180 м
[Sc As op]
+2.5 +1.8 95 -2 -2 1019.3 1008.6
20 18.01 СЗ 2 10 км слаб. дождь 10/8 180 м
[Frnb As op]
+2.5 +2.1 97 -1 -1 1020.2 1009.5
21 18.01 С 1 10 км в посл. час дождь 10/10 180 м
[St]
+2.6 +2.3 98 +1 +1 1020.6 1009.8
22 18.01 штиль 0 10 км 10/10 180 м
[St]
+2.4 +2.0 97 +1 +1 1021.1 1010.4
23 18.01 З 1 10 км 8/4 300 м
[St Ac trans]
+1.6 +1.3 98 -0 -0 1021.4 1010.6
00 19.01 З 1 10 км {дождь} 8/4 300 м
[St Ac trans]
+0.9 +0.6 98 -1 -1 1021.3 1010.5 0.3
01 19.01 штиль 0 10 км 8/0
[Ac trans]
0.0 -0.8 94 -1 -1 1021.7 1010.8
02 19.01 ЮЗ 1 10 км 8/0
[Ac trans]
-0.6 -1.0 97 -3 -3 1021.6 1010.7
03 19.01 ЮЗ 1 10 км 6/0
[Ac trans]
-2.2 -2.6 97 -5 -5 1021.3 1010.3
04 19.01 ЮЗ 1 6000 м дымка 4/0
[Ac trans]
-1.5 -1.6 99 -4 -4 1021.2 1010.3
05 19.01 штиль 0 7000 м дымка 4/0
[Ac trans]
-3.4 -3.8 97 -5 -5 1021.1 1010.1
06 19.01 штиль 0 7000 м дымка 9/9 300 м
[St]
-2.3 -2.6 98 -4 -4 1021.7 1010.7 -4.7 0.3
07 19.01 Ю 1 5000 м дымка 6/4 150 м
[St Ac trans]
+0.2 0.0 99 -2 -2 1021.6 1010.7
08 19.01 СВ 2 6000 м дымка 8/1 180 м
[St Ac und]
+0.6 +0.1 96 -3 -2 1021.6 1010.7
09 19.01 штиль 0 8000 м дымка 9/1 180 м
[St Ac und]
+1.3 +0.3 93 0 +1 1022.2 1011.4
10 19.01 штиль 0 8000 м дымка 9/1 180 м
[St Ac trans]
+2.6 -0.1 82 +2 +4 1021.8 1011.0

 

Местоположение метеостанции Вршац (Сербия): широта 45.15 долгота 21.32 высота над уровнем моря 85 м.

В архиве по умолчанию представлена погода в Вршаце за последнюю неделю. Архивные данные за месяц целиком и за предыдущие месяцы, начиная с января 2011 года, Вы можете получить, выбрав интересующий диапазон дат из раскрывающегося списка и нажав кнопку "Ввод!".


*Определитесь, кто Вы:
робот инопланетянин человек

Внимание! Время в таблицах - всемирное. Для получения местного времени необходимо прибавить поправку, которая равна 1 ч.

Смотрите также архив погоды в соседних городах и на ближайших метеорологических станциях:

Погода в Банатски-Карловаце (Сербия) (25 км)
Погода в Банлоке (Румыния) (30 км)
Погода в Оравице (Румыния) (31 км)
Погода в Велико-Градиште (Сербия) (47 км)
Погода в Решице (Румыния) (50 км)
Погода в Молдова-Вече (Румыния) (54 км)
Погода в Семениче (Румыния) (57 км)
Погода в Божовичах (Румыния) (59 км)
Погода в Тимишоаре (Румыния) (69 км)
Погода в Зренянине (Сербия) (75 км)

Пояснения к столбцам:

Ветер - указаны скорость ветра в м/с - средняя за 10 мин, порывы в срок и между сроками (в фигурных скобках) и направление, откуда дует ветер: С - северный, СВ - северо-восточный, В - восточный, ЮВ - юго-восточный, Ю - южный, ЮЗ - юго-западный, З - западный, СЗ - северо-западный.
Видимость - горизонтальная дальность видимости в метрах или километрах. При видимости от 1 до 10 км при отсутствии осадков обычно наблюдается дымка, при ухудшении видимости до 1 км и менее - туман. В сухую погоду видимость может ухудшаться дымом, пылью или мглою.
Явления - указаны атмосферные явления, наблюдавшиеся в срок или в последний час перед сроком; фигурными скобками обозначены явления, наблюдавшиеся между сроками (за 1-3 часа до срока); квадратными скобками обозначены град или гололедные отложения с указанием их диаметра в мм.
Облачность - указаны через наклонную черту общая и нижняя облачность в баллах и высота нижней границы облаков в метрах; квадратными скобками обозначены формы облаков: Ci - перистые, Cs - перисто-слоистые, Cc - перисто-кучевые, Ac - высококучевые, As - высокослоистые, Sc - слоисто-кучевые, Ns - слоисто-дождевые, Cu - кучевые, Cb - кучево-дождевые. Подробнее классификацию облаков см. в Атласе облаков (PDF).
T - Температура воздуха - температура, измеренная на высоте 2 м над землей.
Td - Температура точки росы - температура, при понижении до которой содержащийся в воздухе водяной пар достигнет насыщения.
f - Относительная влажность воздуха - влажноcть воздуха, измеренная на высоте 2 м над землей.
Te - Эффективная температура - температура, которую ощущает одетый по сезону человек в тени. Характеристика душности погоды. При расчете учитывается влияние влажности воздуха и скорости ветра на теплоощущения человека.
Tes - Эффективная температура на солнце - температура, которую ощущает человек, с поправкой на солнечный нагрев. Характеристика знойности погоды. Зависит от высоты солнца над горизонтом, облачности и скорости ветра. Ночью, в пасмурную погоду, а также при ветре 12 м/с и более поправка равна нулю.
P - Атмосферное давление - приведенное к уровню моря атмосферное давление.
Po - Атмосферное давление - измеренное на уровне метеостанции атмосферное давление.
Tmin - Минимальная температура - минимум температуры воздуха на высоте 2 м над землей.
Tmax - Максимальная температура - максимум температуры воздуха на высоте 2 м над землей.
R - Количество осадков - Количество выпавших осадков за период времени, мм. При наведении курсора мыши на число - период времени, за который выпало указанное количество осадков.
R24 - Количество осадков - Количество выпавших осадков за 24 часа, мм.
S - Снежный покров - Высота снежного покрова, см. При наведении курсора мыши на число - состояние снежного покрова и степень покрытия местности в баллах.